Content
SEND FEEDBACK

Daily
Averages
Monthly
Summary
Turkmenistan

ASHGABAT, TURKMENISTAN


Home > Asia > Turkmenistan
Elevation: 775 feet     Latitude: 37 58N     Longitude: 058 20E

WEATHER
 
SELECT A DAY
Number of Records: 177,268;   Date Range: 3/15/97 - 7/29/14
 
SHARE

PRINT THIS DATA

[ ← Previous Day ]
WEATHER ALMANAC - MAY 9, 2013
[ Next Day → ]
[ °C ]   °F
Weather ElementAverageHighLow
Temperature76.2 °F84.2 °F (3:00 pm)64.4 °F (6:00 am)
Dewpoint41.5 °F51 °F (2:00 am)33.8 °F (11:00 am)
Humidity27.6 %45 % (6:00 am)19 % (2:00 pm)
Barometer30.06 in30.13 in (8:00 am)29.98 in (5:30 pm)
Wind Speed9.4 mph15.7 mph (3:00 am)
Weather ElementAverage
Visibility6.2 mi
Wind DirectionS (180.9 °)

Weather ElementTotal
Precipitation---
Cooling Degree Days9.3 (Base 65)
Growing Degree Days24.3 (Base 50)
Averaged from 34 records on May 9, 2013
WEATHER CONDITIONS BREAKOUT
WIND DIRECTION BREAKOUT
WEATHER BY HOUR - MAY 9, 2013
[ °C ]   °F
Local TimeTemperatureDewpointHumidityBarometerVisibilityWind DirectionWind SpeedGust SpeedPrecipitationEventsConditions
1:00 AM73.4 °F42.8 °F33 %30.04 in6.2 miWest (260°)8.9 mphClear
2:00 AM72.0 °F51.0 °F36 %30.05 in6.0 miWNW (290°)11.2 mph
2:00 AM71.6 °F42.8 °F35 %30.06 in6.2 miWNW (290°)11.2 mphClear
3:00 AM69.8 °F42.8 °F38 %30.06 in6.2 miWNW (290°)15.7 mphClear
4:00 AM68.0 °F42.8 °F40 %30.06 in6.2 miWNW (290°)13.4 mphClear
5:00 AM66.2 °F42.8 °F43 %30.09 in6.2 miWest (280°)11.2 mphClear
5:00 AM67.0 °F48.0 °F39 %30.08 in6.0 miWest (280°)11.2 mph
6:00 AM64.4 °F42.8 °F45 %30.09 in6.2 miWest (270°)8.9 mphScattered Clouds
7:00 AM66.2 °F41.0 °F40 %30.09 in6.2 miWNW (300°)6.7 mphMostly Cloudy
8:00 AM68.0 °F39.2 °F35 %30.12 in6.2 miWNW (300°)11.2 mphOvercast
8:00 AM68.0 °F47.0 °F35 %30.13 in6.0 miNW (310°)11.2 mphOvercast
9:00 AM71.6 °F39.2 °F31 %30.12 in6.2 miWNW (300°)11.2 mphMostly Cloudy
10:00 AM73.4 °F37.4 °F27 %30.12 in6.2 miNW (310°)8.9 mphMostly Cloudy
11:00 AM74.0 °F45.0 °F24 %30.13 in6.0 miWNW (290°)4.5 mphOvercast
11:00 AM77.0 °F33.8 °F21 %30.12 in6.2 miNW (310°)4.5 mphMostly Cloudy
12:00 PM78.8 °F33.8 °F20 %30.12 in6.2 miENE (60°)4.5 mphOvercast
1:00 PM80.6 °F35.6 °F20 %30.09 in6.2 miEast (80°)6.7 mphOvercast
2:00 PM82.4 °F35.6 °F19 %30.06 in6.2 miSE (130°)13.4 mphOvercast
2:00 PM81.0 °F49.0 °F22 %30.06 in6.0 miSE (130°)13.4 mphOvercast
3:00 PM84.2 °F39.2 °F20 %30.04 in6.2 miEast (80°)11.2 mphOvercast
3:30 PM84.2 °F39.2 °F20 %30.04 in6.2 miESE (120°)13.4 mphOvercast
4:00 PM84.2 °F39.2 °F20 %30.01 in6.2 miESE (110°)11.2 mphOvercast
4:30 PM84.2 °F39.2 °F20 %30.01 in6.2 miESE (120°)11.2 mphOvercast
5:00 PM83.0 °F51.0 °F22 %29.99 in6.0 miEast (90°)11.2 mphOvercast
5:00 PM84.2 °F39.2 °F20 %30.01 in6.2 miEast (100°)8.9 mphOvercast
5:30 PM84.2 °F39.2 °F20 %29.98 in6.2 miESE (120°)8.9 mphOvercast
6:00 PM82.4 °F39.2 °F21 %29.98 in6.2 miESE (110°)11.2 mphOvercast
7:00 PM82.4 °F41.0 °F23 %29.98 in6.2 miEast (100°)6.7 mphOvercast
8:00 PM81.0 °F49.0 °F22 %30.00 in6.0 miEast (90°)6.7 mphOvercast
8:00 PM80.6 °F42.8 °F26 %30.01 in6.2 miEast (90°)6.7 mphOvercast
9:00 PM78.8 °F35.6 °F21 %30.01 in6.2 miENE (70°)8.9 mphOvercast
10:00 PM75.2 °F37.4 °F25 %30.04 in6.2 miVariable2.2 mphOvercast
11:00 PM74.0 °F49.0 °F30 %30.04 in6.0 miEast (90°)6.7 mphPartly Cloudy
11:00 PM73.4 °F37.4 °F27 %30.04 in6.2 miEast (90°)6.7 mphMostly Cloudy
Hourly data recorded from UTAA, located miles away from Ashgabat, Turkmenistan







STORIES FROM OUR PARTNERS